Location: Unspecified
(49.2170°N, 0.0000°E)
Time: 08:14:52
(UTC+00:00)

Transit 4A - All Passes

Search period start: 24 January 2021 00:00
Search period end: 03 February 2021 00:00
Orbit: 864 x 980 km, 66.8° (Epoch: 23 January)

Date Brightness Start Highest point End Pass type
(mag) Time Alt. Az. Time Alt. Az. Time Alt. Az.
24 Jan - 00:44:30 10° NNW 00:48:43 18° NNE 00:52:51 10° ENE night (unlit)
24 Jan - 02:30:57 10° NNW 02:36:52 42° NE 02:42:35 10° ESE visible
24 Jan - 04:17:27 10° NW 04:23:25 50° WSW 04:29:09 10° S visible
24 Jan - 17:43:24 10° SSE 17:48:02 22° ESE 17:52:42 10° ENE visible
24 Jan - 19:27:16 10° SW 19:33:42 86° NW 19:40:08 10° NE visible
24 Jan - 21:15:35 10° W 21:20:59 28° NNW 21:26:20 10° NNE visible
24 Jan - 23:05:53 10° NW 23:09:38 16° N 23:13:19 10° NNE visible
25 Jan - 00:53:57 10° NNW 00:58:32 21° NNE 01:03:03 10° ENE night (unlit)
25 Jan - 02:40:15 10° NNW 02:46:22 54° NE 02:52:17 10° SE night (unlit)
25 Jan - 04:27:00 10° NW 04:32:33 36° WSW 04:37:55 10° S visible
25 Jan - 17:51:39 10° SSE 17:57:06 30° ESE 18:02:32 10° NE visible
25 Jan - 19:36:44 10° SW 19:43:06 65° NW 19:49:27 10° NNE visible
25 Jan - 21:25:43 10° WNW 21:30:42 23° NNW 21:35:39 10° NNE visible
25 Jan - 23:15:52 10° NW 23:19:32 16° N 23:23:08 10° NE visible
26 Jan - 01:03:19 10° NNW 01:08:19 24° NNE 01:13:11 10° E night (unlit)
26 Jan - 02:49:33 10° NNW 02:55:48 72° NE 03:01:49 10° SE night (unlit)
26 Jan - 04:36:44 10° NW 04:41:37 25° WSW 04:46:21 10° SSW visible
26 Jan - 18:00:15 10° S 18:06:13 42° ESE 18:12:09 10° NE visible
26 Jan - 19:46:21 10° WSW 19:52:34 50° NW 19:58:44 10° NNE visible
26 Jan - 21:35:55 10° WNW 21:40:29 20° NNW 21:45:01 10° NNE visible
26 Jan - 23:25:42 10° NNW 23:29:26 16° N 23:33:08 10° NE night (unlit)
27 Jan - 01:12:38 10° NNW 01:18:01 29° NNE 01:23:15 10° E night (unlit)
27 Jan - 02:58:54 10° NW 03:05:09 85° WSW 03:11:10 10° SSE night (unlit)
27 Jan - 04:46:46 10° WNW 04:50:36 17° WSW 04:54:21 10° SW night (unlit)
27 Jan - 16:28:34 10° ESE 16:30:18 11° E 16:32:01 10° E daylight
27 Jan - 18:09:09 10° SSW 18:15:24 59° ESE 18:21:39 10° NE visible
27 Jan - 19:56:09 10° WSW 20:02:06 39° NW 20:08:02 10° NNE visible
27 Jan - 21:46:10 10° WNW 21:50:20 18° NNW 21:54:28 10° NNE visible
27 Jan - 23:35:20 10° NNW 23:39:20 17° NNE 23:43:15 10° NE night (unlit)
28 Jan - 01:21:56 10° NNW 01:27:39 36° NE 01:33:11 10° ESE night (unlit)
28 Jan - 03:08:19 10° NW 03:14:26 63° WSW 03:20:19 10° SSE night (unlit)
28 Jan - 04:57:44 10° W 04:59:31 11° W 05:01:16 10° WSW night (unlit)
28 Jan - 16:35:19 10° SE 16:39:13 17° ESE 16:43:07 10° ENE daylight
28 Jan - 18:18:16 10° SSW 18:24:40 80° ESE 18:31:03 10° NE visible
28 Jan - 20:06:05 10° W 20:11:43 31° NW 20:17:18 10° NNE visible
28 Jan - 21:56:21 10° NW 22:00:12 16° N 22:04:01 10° NNE visible
28 Jan - 23:44:51 10° NNW 23:49:11 19° NNE 23:53:25 10° ENE night (unlit)
29 Jan - 01:31:14 10° NNW 01:37:13 45° NE 01:42:59 10° ESE night (unlit)
29 Jan - 03:17:48 10° NW 03:23:37 44° WSW 03:29:14 10° S night (unlit)
29 Jan - 16:43:14 10° SSE 16:48:14 24° ESE 16:53:11 10° NE daylight
29 Jan - 18:27:35 10° SW 18:34:01 78° NW 18:40:24 10° NE visible
29 Jan - 20:16:09 10° W 20:21:24 26° NNW 20:26:35 10° NNE visible
29 Jan - 22:06:26 10° NW 22:10:06 16° N 22:13:44 10° NNE visible
29 Jan - 23:54:16 10° NNW 23:58:59 22° NNE 00:03:36 10° ENE night (unlit)
30 Jan - 01:40:32 10° NNW 01:46:41 60° NE 01:52:38 10° SE night (unlit)
30 Jan - 03:27:25 10° NW 03:32:44 31° WSW 03:37:54 10° S night (unlit)
30 Jan - 16:51:38 10° S 16:57:18 34° ESE 17:02:56 10° NE daylight
30 Jan - 18:37:06 10° SW 18:43:26 59° NW 18:49:43 10° NNE visible
30 Jan - 20:26:19 10° WNW 20:31:09 22° NNW 20:35:56 10° NNE visible
30 Jan - 22:16:22 10° NNW 22:20:01 16° N 22:23:37 10° NE visible
31 Jan - 00:03:36 10° NNW 00:08:44 25° NNE 00:13:43 10° E night (unlit)
31 Jan - 01:49:51 10° NW 01:56:06 80° NE 02:02:06 10° SE night (unlit)
31 Jan - 03:37:13 10° WNW 03:41:46 22° WSW 03:46:12 10° SSW night (unlit)
31 Jan - 17:00:21 10° S 17:06:27 48° ESE 17:12:30 10° NE daylight
31 Jan - 18:46:48 10° WSW 18:52:55 45° NW 18:59:00 10° NNE visible
31 Jan - 20:36:33 10° WNW 20:40:57 19° NNW 20:45:18 10° NNE visible
31 Jan - 22:26:07 10° NNW 22:29:55 16° N 22:33:39 10° NE visible
01 Feb - 00:12:55 10° NNW 00:18:25 31° NE 00:23:44 10° E night (unlit)
01 Feb - 01:59:13 10° NW 02:05:25 77° WSW 02:11:23 10° SSE night (unlit)
01 Feb - 03:47:28 10° WNW 03:50:43 15° WSW 03:53:56 10° SW night (unlit)
01 Feb - 15:27:40 10° SE 15:30:26 13° E 15:33:11 10° ENE daylight
01 Feb - 17:09:19 10° SSW 17:15:40 66° ESE 17:21:58 10° NE daylight
01 Feb - 18:56:39 10° WSW 19:02:29 36° NW 19:08:16 10° NNE visible
01 Feb - 20:46:46 10° NW 20:50:48 17° NNW 20:54:47 10° NNE visible
01 Feb - 22:35:43 10° NNW 22:39:48 17° NNE 22:43:48 10° NE visible
02 Feb - 00:22:13 10° NNW 00:28:01 39° NE 00:33:38 10° ESE night (unlit)
02 Feb - 02:08:39 10° NW 02:14:40 55° WSW 02:20:27 10° SSE night (unlit)
02 Feb - 15:35:02 10° SSE 15:39:23 19° ESE 15:43:43 10° ENE daylight
02 Feb - 17:18:31 10° SSW 17:24:57 88° SE 17:31:21 10° NE visible
02 Feb - 19:06:38 10° W 19:12:07 29° NNW 19:17:33 10° NNE visible
02 Feb - 20:56:56 10° NW 21:00:41 16° N 21:04:24 10° NNE visible
02 Feb - 22:45:11 10° NNW 22:49:38 20° NNE 22:53:59 10° ENE visible
